Flag for Belgium Weather past 2 weeks in Charleroi, Belgium

Now
52 °F

Fog.


Feels Like: 49 °F
Forecast: 48 / 60 °F
Wind: 9 mph from Southwest

Location: Charleroi / Gosselies

Current Time: Oct 25, 2014 at 7:49:34 AM

Latest Report: Oct 25, 2014 at 6:50 AM


Visibility: 3 mi

Pressure: 30.07 "Hg

Humidity: 94%

Dew point: 50 °F

Location of CharleroiLocation

Historic Weather in Charleroi — Graph

°F

Charleroi temperature yesterday

Maximum temperature yesterday: 54 °F (at 1:20 PM)
Minimum temperature yesterday: 50 °F (at 12:20 AM)
Average temperature yesterday: 51 °F

Past Weeks' High & Low Weather Summary

 TemperatureHumidityPressure
High73 °F (Oct 18, 2:20 PM)100% (Oct 11, 3:20 AM)30.24 "Hg (Oct 11, 3:20 AM)
Low41 °F (Oct 22, 6:20 AM)57% (Oct 18, 2:50 PM)29.62 "Hg (Oct 13, 3:20 AM)
Average55 °F84%29.93 "Hg
* Reported Oct 10 6:20 AM — Oct 25 6:20 AM, Charleroi, Weather by CustomWeather, © 2014

Note: Actual official high and low records may vary slightly from our data, if they occured in-between our weather recording intervals... More about our weather records

Advertising

Charleroi weather history for previous 24 hours

 ConditionsComfort  
Time TempWeatherWind HumidityBarometerVisibility
6:20 AM
Oct 25
52 °FPartly cloudy.10 mph94%30.07 "Hg1 mi
5:50 AM52 °FFog.9 mph94%30.07 "Hg3 mi
5:20 AM52 °FPassing clouds.10 mph94%30.04 "Hg4 mi
4:50 AM52 °FPartly cloudy.12 mph94%30.04 "Hg5 mi
4:20 AM52 °FPartly cloudy.12 mph94%30.04 "Hg5 mi
3:50 AM52 °FPassing clouds.10 mph94%30.04 "Hg4 mi
3:20 AM52 °FPassing clouds.10 mph94%30.04 "Hg2 mi
2:50 AM52 °FPassing clouds.12 mph94%30.04 "HgN/A
2:20 AM52 °FPassing clouds.12 mph94%30.04 "HgN/A
1:50 AM50 °FPassing clouds.10 mph100%30.04 "HgN/A
1:20 AM50 °FPassing clouds.12 mph100%30.04 "Hg6 mi
12:50 AM50 °FPassing clouds.13 mph100%30.04 "Hg5 mi
12:20 AM50 °FLight rain. Passing clouds.14 mph100%30.04 "Hg3 mi
11:50 PM
Oct 24
50 °FLight rain. Passing clouds.13 mph100%30.07 "Hg3 mi
11:20 PM50 °FLight rain. Partly cloudy.12 mph100%30.07 "Hg4 mi
10:50 PM50 °FLight rain. Partly cloudy.12 mph94%30.07 "Hg4 mi
10:20 PM50 °FLight rain. Partly cloudy.12 mph94%30.07 "Hg4 mi
9:50 PM52 °FLight rain. Partly cloudy.13 mph88%30.07 "Hg4 mi
9:20 PM52 °FPassing clouds.13 mph88%30.07 "HgN/A
8:50 PM50 °FLight rain. Passing clouds.14 mph94%30.07 "Hg5 mi
8:20 PM50 °FLight rain. Passing clouds.13 mph94%30.07 "Hg5 mi
7:50 PM52 °FPassing clouds.10 mph82%30.07 "Hg5 mi
7:20 PM50 °FPartly sunny.10 mph88%30.07 "HgN/A
6:50 PM50 °FPartly sunny.13 mph94%30.07 "HgN/A
6:20 PM52 °FPartly sunny.14 mph88%30.07 "HgN/A
5:50 PM52 °FLight rain. Partly sunny.15 mph82%30.07 "HgN/A
5:20 PM52 °FLight rain. Partly sunny.12 mph88%30.07 "HgN/A
4:50 PM54 °FPartly sunny.12 mph77%30.07 "HgN/A
4:20 PM54 °FPartly sunny.9 mph82%30.07 "HgN/A
3:50 PM54 °FPartly sunny.13 mph77%30.07 "HgN/A
3:20 PM54 °FLight rain. Broken clouds.12 mph82%30.07 "HgN/A
2:50 PM54 °FPartly sunny.14 mph77%30.09 "HgN/A
2:20 PM54 °FScattered clouds.14 mph77%30.09 "HgN/A
1:50 PM54 °FBroken clouds.15 mph77%30.09 "HgN/A
1:20 PM54 °FBroken clouds.16 mph77%30.09 "HgN/A
12:50 PM52 °FBroken clouds.17 mph82%30.12 "HgN/A
12:20 PM52 °FScattered clouds.15 mph82%30.12 "HgN/A
11:50 AM52 °FPartly sunny.15 mph82%30.12 "HgN/A
11:20 AM52 °FPartly sunny.15 mph82%30.12 "HgN/A
10:50 AM52 °FPartly sunny.15 mph82%30.12 "HgN/A
10:20 AM50 °FPartly sunny.14 mph88%30.12 "HgN/A
9:50 AM50 °FPartly sunny.14 mph82%30.12 "HgN/A
9:20 AM50 °FPartly sunny.12 mph82%30.12 "HgN/A
8:50 AM50 °FLight rain. Passing clouds.12 mph82%30.12 "HgN/A
8:20 AM50 °FPassing clouds.12 mph82%30.12 "HgN/A
7:50 AM50 °FPassing clouds.13 mph82%30.12 "HgN/A
7:20 AM50 °FPassing clouds.12 mph82%30.12 "HgN/A
Weather by CustomWeather, © 2014

See weather overviewHow to use our weather pages